Location: *
(34.8620°S, 39.3380°E)
Time: 20:29:28
(UTC+00:00)

Lacrosse 4 Rocket - Pass Details

Date: 01 December 2021
Orbit: 535 x 620 km, 68.0° (Epoch: 24 January)

Event Time Altitude Azimuth Distance (km) Brightness Sun altitude
Rises 19:12:04 0° 212° (SSW) 2,733 6.2 -26.5°
Reaches altitude 10° 19:14:21 10° 218° (SW) 1,826 5.0 -26.7°
Enters shadow 19:17:15 36° 252° (WSW) 866 2.6 -27.0°
